Weather History for Springfield, MO

Change the Weather History Date:

Wednesday, September 18, 2013

  Actual Average Record
Temperature  
Mean Temperature 76 °F 68 °F  
Max Temperature 82 °F 79 °F 94 °F (1960)
Min Temperature 70 °F 57 °F 37 °F (1981)
Degree Days  
Heating Degree Days 0 2  
Month to date heating degree days 0 13  
Since 1 July heating degree days 0 15  
Cooling Degree Days 11 5  
Month to date cooling degree days 191 131  
Year to date cooling degree days 1334 1317  
Growing Degree Days 26 (Base 50)    
Moisture  
Dew Point 67 °F    
Average Humidity 75    
Maximum Humidity 87    
Minimum Humidity 62    
Precipitation  
Precipitation 0.38 in 0.15 in 2.16 in (1949)
Month to date precipitation 0.89 2.79  
Year to date precipitation 39.04 32.90  
Snow  
Snow 0.00 in - - ()
Month to date snowfall 0.0  
Since 1 July snowfall 0.0  
Since 1 September snowfall 0.0  
Snow Depth 0.00 in    
Sea Level Pressure  
Sea Level Pressure 29.99 in    
Wind  
Wind Speed 12 mph (SSE)    
Max Wind Speed 16 mph    
Max Gust Speed 19 mph    
Visibility 9 miles    
Events Rain , Thunderstorm    
T = Trace of Precipitation, MM = Missing Value Source: NWS Daily Summary

Daily Weather History Graph

Daily Weather History Graph

Search for Another Location

Airport:

Trip Planner

Search our weather history database for the weather conditions in past years. The results will help you decide how hot, cold, wet, or windy it might be!

Date:

Astronomy

Sep. 18, 2013 Rise Set
Actual Time 6:58 AM CDT 7:16 PM CDT
Civil Twilight 6:32 AM CDT 7:42 PM CDT
Nautical Twilight 6:01 AM CDT 8:12 PM CDT
Astronomical Twilight 5:30 AM CDT 8:43 PM CDT
Moon 6:40 PM CDT (9/18) 6:01 AM CDT (9/18)
Length of Visible Light 13h 09m
Length of Day
12h 17m
Waxing Gibbous, 99% of the Moon is Illuminated
Sep 18
Waxing Gibbous
Sep 19
Full
Sep 26
Last Quarter
Oct 4
New
Oct 11
First Quarter

Hourly Weather History & Observations

Time (CDT) Temp. Heat Index Dew Point Humidity Pressure Visibility Wind Dir Wind Speed Gust Speed Precip Events Conditions
12:52 AM 72.0 °F - 64.9 °F 78% 30.02 in 10.0 mi SSE 11.5 mph - N/A   Clear
1:52 AM 71.1 °F - 64.9 °F 81% 30.01 in 10.0 mi SSE 12.7 mph - N/A   Clear
2:52 AM 70.0 °F - 64.9 °F 84% 30.01 in 10.0 mi SSE 12.7 mph - N/A   Clear
3:52 AM 70.0 °F - 64.9 °F 84% 30.01 in 9.0 mi SSE 13.8 mph - N/A   Clear
4:52 AM 70.0 °F - 64.9 °F 84% 29.99 in 9.0 mi SSE 13.8 mph - N/A   Overcast
5:52 AM 70.0 °F - 64.0 °F 81% 30.00 in 9.0 mi SSE 13.8 mph - N/A   Overcast
6:52 AM 70.0 °F - 64.0 °F 81% 30.00 in 9.0 mi SSE 12.7 mph - N/A   Mostly Cloudy
7:52 AM 71.1 °F - 64.0 °F 78% 30.01 in 9.0 mi SSE 12.7 mph - N/A   Mostly Cloudy
8:52 AM 73.0 °F - 64.0 °F 73% 30.02 in 10.0 mi SSE 13.8 mph - N/A   Mostly Cloudy
9:52 AM 75.9 °F - 64.9 °F 69% 30.02 in 10.0 mi SSE 11.5 mph - N/A   Scattered Clouds
10:52 AM 75.9 °F - 66.0 °F 71% 30.02 in 10.0 mi SSE 11.5 mph - 0.00 in   Overcast
11:52 AM 81.0 °F 83.3 °F 66.9 °F 62% 30.01 in 10.0 mi South 15.0 mph - N/A   Partly Cloudy
12:52 PM 81.0 °F 83.0 °F 66.0 °F 60% 30.00 in 10.0 mi SSW 10.4 mph - 0.00 in   Mostly Cloudy
1:27 PM 73.9 °F - 69.1 °F 85% 30.05 in 2.0 mi SW 10.4 mph - 0.04 in Rain , Thunderstorm Heavy Thunderstorms and Rain
1:33 PM 73.0 °F - 68.0 °F 84% 30.05 in 0.8 mi Variable 3.5 mph - 0.17 in Rain , Thunderstorm Heavy Thunderstorms and Rain
1:44 PM 72.0 °F - 68.0 °F 87% 30.04 in 2.0 mi NE 6.9 mph - 0.30 in Rain , Thunderstorm Light Thunderstorms and Rain
1:52 PM 73.0 °F - 68.0 °F 84% 30.01 in 9.0 mi ENE 6.9 mph - 0.31 in Rain , Thunderstorm Light Thunderstorms and Rain
2:13 PM 72.0 °F - 68.0 °F 87% 30.04 in 5.0 mi SE 8.1 mph - 0.06 in Rain , Thunderstorm Light Rain
2:25 PM 72.0 °F - 69.1 °F 91% 30.03 in 10.0 mi ESE 6.9 mph - 0.06 in Rain Light Rain
2:48 PM 73.4 °F - 69.8 °F 88% 30.01 in 9.0 mi SE 10.4 mph - 0.07 in Rain , Thunderstorm Light Rain
2:52 PM 73.9 °F - 71.1 °F 91% 29.98 in 9.0 mi SE 10.4 mph - 0.07 in Thunderstorm Mostly Cloudy
3:03 PM 75.0 °F - 71.1 °F 87% 30.00 in 8.0 mi SE 10.4 mph - N/A   Partly Cloudy
3:52 PM 77.0 °F - 71.1 °F 82% 29.96 in 9.0 mi SE 16.1 mph - N/A   Mostly Cloudy
4:52 PM 75.9 °F - 70.0 °F 82% 29.96 in 10.0 mi SE 10.4 mph - 0.00 in Rain Light Rain
5:52 PM 78.1 °F - 70.0 °F 76% 29.94 in 10.0 mi SE 13.8 mph - 0.00 in   Partly Cloudy
6:52 PM 77.0 °F - 70.0 °F 79% 29.93 in 10.0 mi SE 12.7 mph - N/A   Clear
7:52 PM 75.9 °F - 70.0 °F 82% 29.93 in 10.0 mi SSE 11.5 mph - N/A   Clear
8:52 PM 75.0 °F - 69.1 °F 82% 29.94 in 10.0 mi SSE 9.2 mph - N/A   Clear
9:52 PM 75.0 °F - 69.1 °F 82% 29.96 in 10.0 mi SSE 10.4 mph - N/A   Clear
10:52 PM 73.9 °F - 70.0 °F 87% 29.95 in 9.0 mi SSE 10.4 mph - N/A   Clear
11:52 PM 73.9 °F - 69.1 °F 85% 29.94 in 9.0 mi SSE 11.5 mph - N/A   Clear